Manston, United Kingdom

12:25 AM BST on April 25, 2017 (GMT +0100)
Manston

Weather History for EGMH - December, 2012

Change the Weather History Date:

Wednesday, December 5, 2012

  Actual Average Record
Temperature  
Mean Temperature 34 °F -  
Max Temperature 37 °F 46 °F - ()
Min Temperature 32 °F 37 °F - ()
Degree Days  
Heating Degree Days 30    
Moisture  
Dew Point 32 °F    
Average Humidity 87    
Maximum Humidity 100    
Minimum Humidity 72    
Precipitation  
Precipitation 0.20 in 0.06 in - ()
Sea Level Pressure  
Sea Level Pressure 29.76 in    
Wind  
Wind Speed 14 mph ()    
Max Wind Speed 24 mph    
Max Gust Speed -    
Visibility 6.6 miles    
Events Rain , Snow    
T = Trace of Precipitation, MM = Missing Value Source: Averaged Metar Reports

Daily Weather History Graph

Daily Weather History Graph

Search for Another Location

Airport or City:

Trip Planner

Search our weather history database for the weather conditions in past years. The results will help you decide how hot, cold, wet, or windy it might be!

Date:

Astronomy

Dec. 05, 2012 Rise Set
Actual Time 7:42 AM GMT 3:47 PM GMT
Civil Twilight 7:03 AM GMT 4:26 PM GMT
Nautical Twilight 6:21 AM GMT 5:09 PM GMT
Astronomical Twilight 5:40 AM GMT 5:49 PM GMT
Moon 10:55 PM GMT (12/5) 11:28 AM GMT (12/5)
Length of Visible Light 9h 23m
Length of Day
8h 04m
Waning Gibbous, 62% of the Moon is Illuminated
Dec 5
Waning Gibbous
Dec 6
Last Quarter
Dec 13
New
Dec 20
First Quarter
Dec 28
Full

Hourly Weather History & Observations

Time (GMT) Temp. Windchill Dew Point Humidity Pressure Visibility Wind Dir Wind Speed Gust Speed Precip Events Conditions
12:20 AM 33.8 °F 27.0 °F 32.0 °F 93% 29.59 in - West 8.1 mph - N/A   Clear
2:50 AM 32 °F - 32 °F 100% 29.61 in 14 mi West 6.9 mph - -  
5:50 AM 32 °F - 32 °F 100% 29.62 in 9 mi West 6.9 mph - -  
8:20 AM 33.8 °F 25.3 °F 33.8 °F 100% 29.65 in 2.5 mi NNW 11.5 mph - N/A Rain Light Rain
8:50 AM 34 °F - 34 °F 100% 29.68 in 3 mi North 11.5 mph - - Rain Rain
8:50 AM 33.8 °F 24.3 °F 32.0 °F 93% 29.65 in 2.5 mi North 13.8 mph - N/A Rain , Snow Rain
9:20 AM 33.8 °F 23.5 °F 33.8 °F 100% 29.65 in 2.5 mi North 16.1 mph - N/A Rain , Snow Rain
9:50 AM 35.6 °F 25.5 °F 33.8 °F 93% 29.68 in 2.5 mi North 17.3 mph - N/A Rain Light Rain
10:20 AM 35.6 °F 26.2 °F 33.8 °F 93% 29.68 in 3.7 mi North 15.0 mph - N/A Rain Light Rain
10:50 AM 37.4 °F 27.8 °F 33.8 °F 87% 29.68 in 6.2 mi NNW 17.3 mph - N/A   Scattered Clouds
11:20 AM 37.4 °F 28.2 °F 33.8 °F 87% 29.68 in 6.2 mi NNW 16.1 mph - N/A   Scattered Clouds
11:50 AM 37 °F - 37 °F 99% 29.72 in 17 mi NNW 15.0 mph - -   Partly Cloudy
11:50 AM 37.4 °F 27.5 °F 35.6 °F 93% 29.71 in 6.2 mi NNW 18.4 mph - N/A   Scattered Clouds
12:20 PM 37.4 °F 26.9 °F 33.8 °F 87% 29.71 in 6.2 mi NW 20.7 mph - N/A   Scattered Clouds
12:50 PM 35.6 °F 24.5 °F 32.0 °F 87% 29.71 in 6.2 mi NW 20.7 mph - N/A   Mostly Cloudy
2:50 PM 36 °F - 33 °F 86% 29.76 in 31 mi NW 17.3 mph - -   Overcast
2:50 PM 35.6 °F 25.2 °F 32.0 °F 87% 29.74 in 6.2 mi NW 18.4 mph - N/A   Mostly Cloudy
3:20 PM 35.6 °F 24.5 °F 32.0 °F 87% 29.74 in 6.2 mi NW 20.7 mph - N/A   Mostly Cloudy
3:50 PM 35.6 °F 24.5 °F 32.0 °F 87% 29.77 in 6.2 mi NW 20.7 mph - N/A   Mostly Cloudy
4:20 PM 37.4 °F 26.6 °F 32.0 °F 81% 29.77 in 6.2 mi NW 21.9 mph - N/A   Mostly Cloudy
4:50 PM 37.4 °F 26.4 °F 32.0 °F 81% 29.77 in 6.2 mi NW 23.0 mph - N/A   Mostly Cloudy
5:20 PM 37.4 °F 26.1 °F 30.2 °F 75% 29.80 in 6.2 mi NW 24.2 mph - N/A   Mostly Cloudy
5:50 PM 37 °F - 31 °F 72% 29.83 in 28 mi NW 20.7 mph - -   Mostly Cloudy
5:50 PM 37.4 °F 26.9 °F 30.2 °F 75% 29.80 in 6.2 mi NNW 20.7 mph - N/A   Mostly Cloudy
6:20 PM 37.4 °F 26.6 °F 32.0 °F 81% 29.80 in 6.2 mi NW 21.9 mph - N/A   Mostly Cloudy
6:50 PM 37.4 °F 26.1 °F 32.0 °F 81% 29.83 in 6.2 mi NW 24.2 mph - N/A   Mostly Cloudy
7:20 PM 37.4 °F 26.4 °F 32.0 °F 81% 29.83 in 6.2 mi NNW 23.0 mph - N/A   Mostly Cloudy
7:50 PM 35.6 °F 24.2 °F 32.0 °F 87% 29.86 in 6.2 mi NW 21.9 mph - N/A   Mostly Cloudy
8:20 PM 35.6 °F 24.5 °F 30.2 °F 81% 29.86 in 6.2 mi NW 20.7 mph - N/A   Mostly Cloudy
8:50 PM 35 °F - 31 °F 79% 29.89 in 22 mi NW 18.4 mph - -   Scattered Clouds
8:50 PM 35.6 °F 24.5 °F 30.2 °F 81% 29.86 in 6.2 mi NW 20.7 mph - N/A   Scattered Clouds
10:50 PM 33.8 °F 21.3 °F 30.2 °F 87% 29.92 in 6.2 mi NNW 24.2 mph - N/A   Scattered Clouds
11:20 PM 33.8 °F 21.9 °F 30.2 °F 87% 29.92 in 6.2 mi NNW 21.9 mph - N/A   Scattered Clouds
11:50 PM 34 °F - 31 °F 85% 29.95 in 17 mi NW 17.3 mph - -   Scattered Clouds